Location: Chuathbaluk
(61.5726°N, 159.2454°W)
Time: 18:14:06
(UTC+00:00)

Explorer 7 - Pass Details

Date: 27 November 2020
Orbit: 484 x 678 km, 50.3° (Epoch: 14 January)

Event Time Altitude Azimuth Distance (km) Brightness Sun altitude
Exits shadow 17:23:58 - 243° (WSW) 2,146 9.5 -11.9°
Reaches altitude 10° 17:25:19 10° 229° (SW) 1,816 9.2 -11.8°
Maximum altitude 17:27:17 13° 201° (SSW) 1,593 9.2 -11.5°
Drops below altitude 10° 17:29:12 10° 172° (S) 1,763 9.8 -11.3°
Sets 17:32:19 0° 144° (SE) 2,610 11.4 -11.0°
